Year,Month,Day,Hour,Minute,Value (Times are PST for temperature in C)
2016,04,11,00,00,7.40
2016,04,11,00,01,7.40
2016,04,11,00,02,7.40
2016,04,11,00,03,7.40
2016,04,11,00,04,7.40
2016,04,11,00,05,7.30
2016,04,11,00,06,7.30
2016,04,11,00,07,7.30
2016,04,11,00,08,7.30
2016,04,11,00,09,7.30
2016,04,11,00,10,7.30
2016,04,11,00,11,7.30
2016,04,11,00,12,7.30
2016,04,11,00,13,7.30
2016,04,11,00,14,7.40
2016,04,11,00,15,7.40
2016,04,11,00,16,7.50
2016,04,11,00,17,7.60
2016,04,11,00,18,7.60
2016,04,11,00,19,7.80
2016,04,11,00,20,7.80
2016,04,11,00,21,7.90
2016,04,11,00,22,8.00
2016,04,11,00,23,8.10
2016,04,11,00,24,8.20
2016,04,11,00,25,8.20
2016,04,11,00,26,8.20
2016,04,11,00,27,8.20
2016,04,11,00,28,8.20
2016,04,11,00,29,8.20
2016,04,11,00,30,8.30
2016,04,11,00,31,8.30
2016,04,11,00,32,8.30
2016,04,11,00,33,8.30
2016,04,11,00,34,8.30
2016,04,11,00,35,8.30
2016,04,11,00,36,8.20
2016,04,11,00,37,8.30
2016,04,11,00,38,8.30
2016,04,11,00,39,8.30
2016,04,11,00,40,8.20
2016,04,11,00,41,8.20
2016,04,11,00,42,8.30
2016,04,11,00,43,8.30
2016,04,11,00,44,8.30
2016,04,11,00,45,8.30
2016,04,11,00,46,8.30
2016,04,11,00,47,8.30
2016,04,11,00,48,8.30
2016,04,11,00,49,8.30
2016,04,11,00,50,8.30
2016,04,11,00,51,8.30
2016,04,11,00,52,8.30
2016,04,11,00,53,8.30
2016,04,11,00,54,8.30
2016,04,11,00,55,8.30
2016,04,11,00,56,8.30
2016,04,11,00,57,8.30
2016,04,11,00,58,8.30
2016,04,11,00,59,8.30
2016,04,11,01,00,8.30
2016,04,11,01,01,8.40
2016,04,11,01,02,8.40
2016,04,11,01,03,8.40
2016,04,11,01,04,8.40
2016,04,11,01,05,8.50
2016,04,11,01,06,8.50
2016,04,11,01,07,8.50
2016,04,11,01,08,8.50
2016,04,11,01,09,8.50
2016,04,11,01,10,8.60
2016,04,11,01,11,8.60
2016,04,11,01,12,8.60
2016,04,11,01,13,8.60
2016,04,11,01,14,8.60
2016,04,11,01,15,8.60
2016,04,11,01,16,8.60
2016,04,11,01,17,8.60
2016,04,11,01,18,8.60
2016,04,11,01,19,8.60
2016,04,11,01,20,8.60
2016,04,11,01,21,8.60
2016,04,11,01,22,8.50
2016,04,11,01,23,8.50
2016,04,11,01,24,8.50
2016,04,11,01,25,8.50
2016,04,11,01,26,8.40
2016,04,11,01,27,8.40
2016,04,11,01,28,8.40
2016,04,11,01,29,8.40
2016,04,11,01,30,8.30
2016,04,11,01,31,8.30
2016,04,11,01,32,8.20
2016,04,11,01,33,8.20
2016,04,11,01,34,8.20
2016,04,11,01,35,8.10
2016,04,11,01,36,8.10
2016,04,11,01,37,8.00
2016,04,11,01,38,8.00
2016,04,11,01,39,7.90
2016,04,11,01,40,7.90
2016,04,11,01,41,7.90
2016,04,11,01,42,7.80
2016,04,11,01,43,7.80
2016,04,11,01,44,7.80
2016,04,11,01,45,7.70
2016,04,11,01,46,7.70
2016,04,11,01,47,7.60
2016,04,11,01,48,7.60
2016,04,11,01,49,7.60
2016,04,11,01,50,7.50
2016,04,11,01,51,7.50
2016,04,11,01,52,7.40
2016,04,11,01,53,7.40
2016,04,11,01,54,7.30
2016,04,11,01,55,7.30
2016,04,11,01,56,7.30
2016,04,11,01,57,7.30
2016,04,11,01,58,7.20
2016,04,11,01,59,7.20
2016,04,11,02,00,7.10
2016,04,11,02,01,7.10
2016,04,11,02,02,7.10
2016,04,11,02,03,7.10
2016,04,11,02,04,7.00
2016,04,11,02,05,7.00
2016,04,11,02,06,7.00
2016,04,11,02,07,7.00
2016,04,11,02,08,7.00
2016,04,11,02,09,7.00
2016,04,11,02,10,7.00
2016,04,11,02,11,7.00
2016,04,11,02,12,7.00
2016,04,11,02,13,7.00
2016,04,11,02,14,7.00
2016,04,11,02,15,7.00
2016,04,11,02,16,7.00
2016,04,11,02,17,7.00
2016,04,11,02,18,7.00
2016,04,11,02,19,7.00
2016,04,11,02,20,7.00
2016,04,11,02,21,7.00
2016,04,11,02,22,7.00
2016,04,11,02,23,7.00
2016,04,11,02,24,7.00
2016,04,11,02,25,6.90
2016,04,11,02,26,6.90
2016,04,11,02,27,6.90
2016,04,11,02,28,6.90
2016,04,11,02,29,6.80
2016,04,11,02,30,6.80
2016,04,11,02,31,6.80
2016,04,11,02,32,6.80
2016,04,11,02,33,6.80
2016,04,11,02,34,6.80
2016,04,11,02,35,6.70
2016,04,11,02,36,6.70
2016,04,11,02,37,6.70
2016,04,11,02,38,6.70
2016,04,11,02,39,6.60
2016,04,11,02,40,6.60
2016,04,11,02,41,6.60
2016,04,11,02,42,6.60
2016,04,11,02,43,6.60
2016,04,11,02,44,6.60
2016,04,11,02,45,6.60
2016,04,11,02,46,6.60
2016,04,11,02,47,6.60
2016,04,11,02,48,6.60
2016,04,11,02,49,6.60
2016,04,11,02,50,6.60
2016,04,11,02,51,6.60
2016,04,11,02,52,6.60
2016,04,11,02,53,6.60
2016,04,11,02,54,6.60
2016,04,11,02,55,6.60
2016,04,11,02,56,6.60
2016,04,11,02,57,6.60
2016,04,11,02,58,6.60
2016,04,11,02,59,6.60
2016,04,11,03,00,6.60
2016,04,11,03,01,6.60
2016,04,11,03,02,6.60
2016,04,11,03,03,6.60
2016,04,11,03,04,6.60
2016,04,11,03,05,6.50
2016,04,11,03,06,6.40
2016,04,11,03,07,6.40
2016,04,11,03,08,6.40
2016,04,11,03,09,6.40
2016,04,11,03,10,6.40
2016,04,11,03,11,6.40
2016,04,11,03,12,6.40
2016,04,11,03,13,6.40
2016,04,11,03,14,6.40
2016,04,11,03,15,6.40
2016,04,11,03,16,6.40
2016,04,11,03,17,6.40
2016,04,11,03,18,6.40
2016,04,11,03,19,6.40
2016,04,11,03,20,6.40
2016,04,11,03,21,6.40
2016,04,11,03,22,6.40
2016,04,11,03,23,6.40
2016,04,11,03,24,6.40
2016,04,11,03,25,6.40
2016,04,11,03,26,6.40
2016,04,11,03,27,6.40
2016,04,11,03,28,6.40
2016,04,11,03,29,6.40
2016,04,11,03,30,6.40
2016,04,11,03,31,6.40
2016,04,11,03,32,6.40
2016,04,11,03,33,6.40
2016,04,11,03,34,6.40
2016,04,11,03,35,6.40
2016,04,11,03,36,6.40
2016,04,11,03,37,6.40
2016,04,11,03,38,6.40
2016,04,11,03,39,6.40
2016,04,11,03,40,6.40
2016,04,11,03,41,6.50
2016,04,11,03,42,6.60
2016,04,11,03,43,6.60
2016,04,11,03,44,6.60
2016,04,11,03,45,6.60
2016,04,11,03,46,6.60
2016,04,11,03,47,6.60
2016,04,11,03,48,6.70
2016,04,11,03,49,6.80
2016,04,11,03,50,6.80
2016,04,11,03,51,6.80
2016,04,11,03,52,6.80
2016,04,11,03,53,6.80
2016,04,11,03,54,6.80
2016,04,11,03,55,6.80
2016,04,11,03,56,6.90
2016,04,11,03,57,6.90
2016,04,11,03,58,6.90
2016,04,11,03,59,7.00
2016,04,11,04,00,7.00
2016,04,11,04,01,7.00
2016,04,11,04,02,7.10
2016,04,11,04,03,7.20
2016,04,11,04,04,7.30
2016,04,11,04,05,7.30
2016,04,11,04,06,7.40
2016,04,11,04,07,7.40
2016,04,11,04,08,7.40
2016,04,11,04,09,7.50
2016,04,11,04,10,7.50
2016,04,11,04,11,7.50
2016,04,11,04,12,7.60
2016,04,11,04,13,7.60
2016,04,11,04,14,7.70
2016,04,11,04,15,7.70
2016,04,11,04,16,7.70
2016,04,11,04,17,7.80
2016,04,11,04,18,7.80
2016,04,11,04,19,7.80
2016,04,11,04,20,7.80
2016,04,11,04,21,7.80
2016,04,11,04,22,7.80
2016,04,11,04,23,7.80
2016,04,11,04,24,7.80
2016,04,11,04,25,7.80
2016,04,11,04,26,7.80
2016,04,11,04,27,7.80
2016,04,11,04,28,7.80
2016,04,11,04,29,7.80
2016,04,11,04,30,7.80
2016,04,11,04,31,7.80
2016,04,11,04,32,7.80
2016,04,11,04,33,7.80
2016,04,11,04,34,7.80
2016,04,11,04,35,7.90
2016,04,11,04,36,7.90
2016,04,11,04,37,7.90
2016,04,11,04,38,7.90
2016,04,11,04,39,7.90
2016,04,11,04,40,7.90
2016,04,11,04,41,7.90
2016,04,11,04,42,7.90
2016,04,11,04,43,7.90
2016,04,11,04,44,7.90
2016,04,11,04,45,7.90
2016,04,11,04,46,7.80
2016,04,11,04,47,7.80
2016,04,11,04,48,7.80
2016,04,11,04,49,7.80
2016,04,11,04,50,7.80
2016,04,11,04,51,7.80
2016,04,11,04,52,7.80
2016,04,11,04,53,7.80
2016,04,11,04,54,7.80
2016,04,11,04,55,7.80
2016,04,11,04,56,7.80
2016,04,11,04,57,7.80
2016,04,11,04,58,7.80
2016,04,11,04,59,7.80
2016,04,11,05,00,7.80
2016,04,11,05,01,7.80
2016,04,11,05,02,7.90
2016,04,11,05,03,7.90
2016,04,11,05,04,7.90
2016,04,11,05,05,7.90
2016,04,11,05,06,7.90
2016,04,11,05,07,7.90
2016,04,11,05,08,7.90
2016,04,11,05,09,7.90
2016,04,11,05,10,8.00
2016,04,11,05,11,8.00
2016,04,11,05,12,8.00
2016,04,11,05,13,8.00
2016,04,11,05,14,8.00
2016,04,11,05,15,8.00
2016,04,11,05,16,8.00
2016,04,11,05,17,8.10
2016,04,11,05,18,8.10
2016,04,11,05,19,8.10
2016,04,11,05,20,8.20
2016,04,11,05,21,8.20
2016,04,11,05,22,8.20
2016,04,11,05,23,8.20
2016,04,11,05,24,8.20
2016,04,11,05,25,8.20
2016,04,11,05,26,8.20
2016,04,11,05,27,8.20
2016,04,11,05,28,8.20
2016,04,11,05,29,8.20
2016,04,11,05,30,8.20
2016,04,11,05,31,8.20
2016,04,11,05,32,8.20
2016,04,11,05,33,8.20
2016,04,11,05,34,8.20
2016,04,11,05,35,8.20
2016,04,11,05,36,8.20
2016,04,11,05,37,8.20
2016,04,11,05,38,8.20
2016,04,11,05,39,8.20
2016,04,11,05,40,8.20
2016,04,11,05,41,8.20
2016,04,11,05,42,8.20
2016,04,11,05,43,8.20
2016,04,11,05,44,8.20
2016,04,11,05,45,8.20
2016,04,11,05,46,8.20
2016,04,11,05,47,8.20
2016,04,11,05,48,8.10
2016,04,11,05,49,8.10
2016,04,11,05,50,8.10
2016,04,11,05,51,8.10
2016,04,11,05,52,8.10
2016,04,11,05,53,8.10
2016,04,11,05,54,8.10
2016,04,11,05,55,8.10
2016,04,11,05,56,8.00
2016,04,11,05,57,8.00
2016,04,11,05,58,8.00
2016,04,11,05,59,8.00
2016,04,11,06,00,8.00
2016,04,11,06,01,8.00
2016,04,11,06,02,8.00
2016,04,11,06,03,8.00
2016,04,11,06,04,8.00
2016,04,11,06,05,8.00
2016,04,11,06,06,8.00
2016,04,11,06,07,8.00
2016,04,11,06,08,8.00
2016,04,11,06,09,8.00
2016,04,11,06,10,8.00
2016,04,11,06,11,8.00
2016,04,11,06,12,8.00
2016,04,11,06,13,8.00
2016,04,11,06,14,8.00
2016,04,11,06,15,8.00
2016,04,11,06,16,8.00
2016,04,11,06,17,8.10
2016,04,11,06,18,8.10
2016,04,11,06,19,8.10
2016,04,11,06,20,8.10
2016,04,11,06,21,8.10
2016,04,11,06,22,8.10
2016,04,11,06,23,8.10
2016,04,11,06,24,8.10
2016,04,11,06,25,8.10
2016,04,11,06,26,8.10
2016,04,11,06,27,8.10
2016,04,11,06,28,8.10
2016,04,11,06,29,8.10
2016,04,11,06,30,8.10
2016,04,11,06,31,8.10
2016,04,11,06,32,8.10
2016,04,11,06,33,8.10
2016,04,11,06,34,8.00
2016,04,11,06,35,8.10
2016,04,11,06,36,8.10
2016,04,11,06,37,8.10
2016,04,11,06,38,8.10
2016,04,11,06,39,8.10
2016,04,11,06,40,8.10
2016,04,11,06,41,8.10
2016,04,11,06,42,8.20
2016,04,11,06,43,8.20
2016,04,11,06,44,8.20
2016,04,11,06,45,8.20
2016,04,11,06,46,8.20
2016,04,11,06,47,8.20
2016,04,11,06,48,8.20
2016,04,11,06,49,8.20
2016,04,11,06,50,8.20
2016,04,11,06,51,8.20
2016,04,11,06,52,8.20
2016,04,11,06,53,8.20
2016,04,11,06,54,8.20
2016,04,11,06,55,8.20
2016,04,11,06,56,8.20
2016,04,11,06,57,8.20
2016,04,11,06,58,8.20
2016,04,11,06,59,8.20
2016,04,11,07,00,8.20
2016,04,11,07,01,8.20
2016,04,11,07,02,8.20
2016,04,11,07,03,8.20
2016,04,11,07,04,8.20
2016,04,11,07,05,8.20
2016,04,11,07,06,8.20
2016,04,11,07,07,8.20
2016,04,11,07,08,8.20
2016,04,11,07,09,8.20
2016,04,11,07,10,8.20
2016,04,11,07,11,8.20
2016,04,11,07,12,8.20
2016,04,11,07,13,8.20
2016,04,11,07,14,8.20
2016,04,11,07,15,8.20
2016,04,11,07,16,8.20
2016,04,11,07,17,8.20
2016,04,11,07,18,8.20
2016,04,11,07,19,8.20
2016,04,11,07,20,8.20
2016,04,11,07,21,8.20
2016,04,11,07,22,8.20
2016,04,11,07,23,8.20
2016,04,11,07,24,8.30
2016,04,11,07,25,8.30
2016,04,11,07,26,8.40
2016,04,11,07,27,8.40
2016,04,11,07,28,8.40
2016,04,11,07,29,8.50
2016,04,11,07,30,8.50
2016,04,11,07,31,8.50
2016,04,11,07,32,8.50
2016,04,11,07,33,8.60
2016,04,11,07,34,8.60
2016,04,11,07,35,8.70
2016,04,11,07,36,8.70
2016,04,11,07,37,8.70
2016,04,11,07,38,8.70
2016,04,11,07,39,8.70
2016,04,11,07,40,8.70
2016,04,11,07,41,8.70
2016,04,11,07,42,8.70
2016,04,11,07,43,8.80
2016,04,11,07,44,8.80
2016,04,11,07,45,8.80
2016,04,11,07,46,8.80
2016,04,11,07,47,8.80
2016,04,11,07,48,8.80
2016,04,11,07,49,8.80
2016,04,11,07,50,8.80
2016,04,11,07,51,8.80
2016,04,11,07,52,8.80
2016,04,11,07,53,8.80
2016,04,11,07,54,8.80
2016,04,11,07,55,8.70
2016,04,11,07,56,8.80
2016,04,11,07,57,8.80
2016,04,11,07,58,8.80
2016,04,11,07,59,8.90
2016,04,11,08,00,8.90
2016,04,11,08,01,8.90
2016,04,11,08,02,8.90
2016,04,11,08,03,8.90
2016,04,11,08,04,8.90
2016,04,11,08,05,8.90
2016,04,11,08,06,8.90
2016,04,11,08,07,8.90
2016,04,11,08,08,9.00
2016,04,11,08,09,9.00
2016,04,11,08,10,9.00
2016,04,11,08,11,9.00
2016,04,11,08,12,9.00
2016,04,11,08,13,9.00
2016,04,11,08,14,9.10
2016,04,11,08,15,9.10
2016,04,11,08,16,9.10
2016,04,11,08,17,9.10
2016,04,11,08,18,9.20
2016,04,11,08,19,9.20
2016,04,11,08,20,9.20
2016,04,11,08,21,9.20
2016,04,11,08,22,9.20
2016,04,11,08,23,9.20
2016,04,11,08,24,9.20
2016,04,11,08,25,9.20
2016,04,11,08,26,9.20
2016,04,11,08,27,9.20
2016,04,11,08,28,9.20
2016,04,11,08,29,9.30
2016,04,11,08,30,9.30
2016,04,11,08,31,9.30
2016,04,11,08,32,9.30
2016,04,11,08,33,9.40
2016,04,11,08,34,9.40
2016,04,11,08,35,9.40
2016,04,11,08,36,9.40
2016,04,11,08,37,9.50
2016,04,11,08,38,9.50
2016,04,11,08,39,9.50
2016,04,11,08,40,9.50
2016,04,11,08,41,9.50
2016,04,11,08,42,9.60
2016,04,11,08,43,9.60
2016,04,11,08,44,9.60
2016,04,11,08,45,9.60
2016,04,11,08,46,9.70
2016,04,11,08,47,9.70
2016,04,11,08,48,9.70
2016,04,11,08,49,9.70
2016,04,11,08,50,9.70
2016,04,11,08,51,9.70
2016,04,11,08,52,9.70
2016,04,11,08,53,9.70
2016,04,11,08,54,9.70
2016,04,11,08,55,9.70
2016,04,11,08,56,9.70
2016,04,11,08,57,9.80
2016,04,11,08,58,9.80
2016,04,11,08,59,9.90
2016,04,11,09,00,9.90
2016,04,11,09,01,9.90
2016,04,11,09,02,9.90
2016,04,11,09,03,9.90
2016,04,11,09,04,9.90
2016,04,11,09,05,9.90
2016,04,11,09,06,9.90
2016,04,11,09,07,9.90
2016,04,11,09,08,9.90
2016,04,11,09,09,9.90
2016,04,11,09,10,9.90
2016,04,11,09,11,9.90
2016,04,11,09,12,9.90
2016,04,11,09,13,9.90
2016,04,11,09,14,9.90
2016,04,11,09,15,9.90
2016,04,11,09,16,9.90
2016,04,11,09,17,9.90
2016,04,11,09,18,9.90
2016,04,11,09,19,9.90
2016,04,11,09,20,9.90
2016,04,11,09,21,9.90
2016,04,11,09,22,9.90
2016,04,11,09,23,9.90
2016,04,11,09,24,9.90
2016,04,11,09,25,10.00
2016,04,11,09,26,10.10
2016,04,11,09,27,10.10
2016,04,11,09,28,10.10
2016,04,11,09,29,10.10
2016,04,11,09,30,10.10
2016,04,11,09,31,10.10
2016,04,11,09,32,10.10
2016,04,11,09,33,10.20
2016,04,11,09,34,10.20
2016,04,11,09,35,10.30
2016,04,11,09,36,10.40
2016,04,11,09,37,10.40
2016,04,11,09,38,10.40
2016,04,11,09,39,10.40
2016,04,11,09,40,10.40
2016,04,11,09,41,10.50
2016,04,11,09,42,10.60
2016,04,11,09,43,10.60
2016,04,11,09,44,10.60
2016,04,11,09,45,10.60
2016,04,11,09,46,10.60
2016,04,11,09,47,10.60
2016,04,11,09,48,10.70
2016,04,11,09,49,10.70
2016,04,11,09,50,10.80
2016,04,11,09,51,10.90
2016,04,11,09,52,11.00
2016,04,11,09,53,11.10
2016,04,11,09,54,11.10
2016,04,11,09,55,11.20
2016,04,11,09,56,11.30
2016,04,11,09,57,11.40
2016,04,11,09,58,11.40
2016,04,11,09,59,11.60
2016,04,11,10,00,11.60
2016,04,11,10,01,11.60
2016,04,11,10,02,11.70
2016,04,11,10,03,11.70
2016,04,11,10,04,11.80
2016,04,11,10,05,11.90
2016,04,11,10,06,12.00
2016,04,11,10,07,12.00
2016,04,11,10,08,12.00
2016,04,11,10,09,12.00
2016,04,11,10,10,12.00
2016,04,11,10,11,12.10
2016,04,11,10,12,12.20
2016,04,11,10,13,12.30
2016,04,11,10,14,12.30
2016,04,11,10,15,12.40
2016,04,11,10,16,12.40
2016,04,11,10,17,12.40
2016,04,11,10,18,12.50
2016,04,11,10,19,12.50
2016,04,11,10,20,12.40
2016,04,11,10,21,12.40
2016,04,11,10,22,12.40
2016,04,11,10,23,12.50
2016,04,11,10,24,12.50
2016,04,11,10,25,12.50
2016,04,11,10,26,12.50
2016,04,11,10,27,12.50
2016,04,11,10,28,12.50
2016,04,11,10,29,12.40
2016,04,11,10,30,12.30
2016,04,11,10,31,12.40
2016,04,11,10,32,12.30
2016,04,11,10,33,12.30
2016,04,11,10,34,12.30
2016,04,11,10,35,12.30
2016,04,11,10,36,12.30
2016,04,11,10,37,12.30
2016,04,11,10,38,12.30
2016,04,11,10,39,12.30
2016,04,11,10,40,12.30
2016,04,11,10,41,12.30
2016,04,11,10,42,12.20
2016,04,11,10,43,12.20
2016,04,11,10,44,12.20
2016,04,11,10,45,12.20
2016,04,11,10,46,12.20
2016,04,11,10,47,12.20
2016,04,11,10,48,12.10
2016,04,11,10,49,12.10
2016,04,11,10,50,12.10
2016,04,11,10,51,12.20
2016,04,11,10,52,12.20
2016,04,11,10,53,12.30
2016,04,11,10,54,12.30
2016,04,11,10,55,12.30
2016,04,11,10,56,12.20
2016,04,11,10,57,12.20
2016,04,11,10,58,12.10
2016,04,11,10,59,12.10
2016,04,11,11,00,12.10
2016,04,11,11,01,12.00
2016,04,11,11,02,12.00
2016,04,11,11,03,12.00
2016,04,11,11,04,12.00
2016,04,11,11,05,12.00
2016,04,11,11,06,12.00
2016,04,11,11,07,12.00
2016,04,11,11,08,11.90
2016,04,11,11,09,11.90
2016,04,11,11,10,11.90
2016,04,11,11,11,11.90
2016,04,11,11,12,11.90
2016,04,11,11,13,11.90
2016,04,11,11,14,11.90
2016,04,11,11,15,11.90
2016,04,11,11,16,11.90
2016,04,11,11,17,11.90
2016,04,11,11,18,11.90
2016,04,11,11,19,11.90
2016,04,11,11,20,12.00
2016,04,11,11,21,12.00
2016,04,11,11,22,12.10
2016,04,11,11,23,12.20
2016,04,11,11,24,12.30
2016,04,11,11,25,12.50
2016,04,11,11,26,12.60
2016,04,11,11,27,12.70
2016,04,11,11,28,12.80
2016,04,11,11,29,12.90
2016,04,11,11,30,12.90
2016,04,11,11,31,12.90
2016,04,11,11,32,12.90
2016,04,11,11,33,12.80
2016,04,11,11,34,12.70
2016,04,11,11,35,12.60
2016,04,11,11,36,12.40
2016,04,11,11,37,12.40
2016,04,11,11,38,12.50
2016,04,11,11,39,12.50
2016,04,11,11,40,12.60
2016,04,11,11,41,12.80
2016,04,11,11,42,13.10
2016,04,11,11,43,13.30
2016,04,11,11,44,13.40
2016,04,11,11,45,13.50
2016,04,11,11,46,13.50
2016,04,11,11,47,13.50
2016,04,11,11,48,13.60
2016,04,11,11,49,13.70
2016,04,11,11,50,13.60
2016,04,11,11,51,13.60
2016,04,11,11,52,13.50
2016,04,11,11,53,13.50
2016,04,11,11,54,13.50
2016,04,11,11,55,13.40
2016,04,11,11,56,13.40
2016,04,11,11,57,13.40
2016,04,11,11,58,13.40
2016,04,11,11,59,13.30
2016,04,11,12,00,13.20
2016,04,11,12,01,13.10
2016,04,11,12,02,13.10
2016,04,11,12,03,13.20
2016,04,11,12,04,13.20
2016,04,11,12,05,13.20
2016,04,11,12,06,13.10
2016,04,11,12,07,13.10
2016,04,11,12,08,13.00
2016,04,11,12,09,13.00
2016,04,11,12,10,12.90
2016,04,11,12,11,12.80
2016,04,11,12,12,12.60
2016,04,11,12,13,12.50
2016,04,11,12,14,12.30
2016,04,11,12,15,12.10
2016,04,11,12,16,12.10
2016,04,11,12,17,12.10
2016,04,11,12,18,12.10
2016,04,11,12,19,12.30
2016,04,11,12,20,12.40
2016,04,11,12,21,12.50
2016,04,11,12,22,12.70
2016,04,11,12,23,12.90
2016,04,11,12,24,13.20
2016,04,11,12,25,13.30
2016,04,11,12,26,13.40
2016,04,11,12,27,13.40
2016,04,11,12,28,13.40
2016,04,11,12,29,13.40
2016,04,11,12,30,13.40
2016,04,11,12,31,13.30
2016,04,11,12,32,13.30
2016,04,11,12,33,13.30
2016,04,11,12,34,13.30
2016,04,11,12,35,13.40
2016,04,11,12,36,13.40
2016,04,11,12,37,13.30
2016,04,11,12,38,13.30
2016,04,11,12,39,13.20
2016,04,11,12,40,13.10
2016,04,11,12,41,13.10
2016,04,11,12,42,13.20
2016,04,11,12,43,13.30
2016,04,11,12,44,13.40
2016,04,11,12,45,13.50
2016,04,11,12,46,13.50
2016,04,11,12,47,13.60
2016,04,11,12,48,13.70
2016,04,11,12,49,13.70
2016,04,11,12,50,13.70
2016,04,11,12,51,13.70
2016,04,11,12,52,13.70
2016,04,11,12,53,13.70
2016,04,11,12,54,13.70
2016,04,11,12,55,13.70
2016,04,11,12,56,13.70
2016,04,11,12,57,13.70
2016,04,11,12,58,13.70
2016,04,11,12,59,13.70
2016,04,11,13,00,13.70
2016,04,11,13,01,13.70
2016,04,11,13,02,13.70
2016,04,11,13,03,13.70
2016,04,11,13,04,13.70
2016,04,11,13,05,13.70
2016,04,11,13,06,13.70
2016,04,11,13,07,13.90
2016,04,11,13,08,13.90
2016,04,11,13,09,13.90
2016,04,11,13,10,13.90
2016,04,11,13,11,13.80
2016,04,11,13,12,13.90
2016,04,11,13,13,13.90
2016,04,11,13,14,13.90
2016,04,11,13,15,13.90
2016,04,11,13,16,13.80
2016,04,11,13,17,13.70
2016,04,11,13,18,13.60
2016,04,11,13,19,13.40
2016,04,11,13,20,13.30
2016,04,11,13,21,13.20
2016,04,11,13,22,13.10
2016,04,11,13,23,13.10
2016,04,11,13,24,13.10
2016,04,11,13,25,13.10
2016,04,11,13,26,13.10
2016,04,11,13,27,13.20
2016,04,11,13,28,13.10
2016,04,11,13,29,13.10
2016,04,11,13,30,13.10
2016,04,11,13,31,13.20
2016,04,11,13,32,13.30
2016,04,11,13,33,13.30
2016,04,11,13,34,13.30
2016,04,11,13,35,13.20
2016,04,11,13,36,13.20
2016,04,11,13,37,13.10
2016,04,11,13,38,13.10
2016,04,11,13,39,13.00
2016,04,11,13,40,13.00
2016,04,11,13,41,13.00
2016,04,11,13,42,13.00
2016,04,11,13,43,13.10
2016,04,11,13,44,13.20
2016,04,11,13,45,13.20
2016,04,11,13,46,13.20
2016,04,11,13,47,13.30
2016,04,11,13,48,13.30
2016,04,11,13,49,13.30
2016,04,11,13,50,13.30
2016,04,11,13,51,13.30
2016,04,11,13,52,13.20
2016,04,11,13,53,13.20
2016,04,11,13,54,13.10
2016,04,11,13,55,13.00
2016,04,11,13,56,12.90
2016,04,11,13,57,12.90
2016,04,11,13,58,13.00
2016,04,11,13,59,13.00
2016,04,11,14,00,13.00
2016,04,11,14,01,13.00
2016,04,11,14,02,13.00
2016,04,11,14,03,13.00
2016,04,11,14,04,12.90
2016,04,11,14,05,12.90
2016,04,11,14,06,12.90
2016,04,11,14,07,12.90
2016,04,11,14,08,12.80
2016,04,11,14,09,12.80
2016,04,11,14,10,12.80
2016,04,11,14,11,12.70
2016,04,11,14,12,12.70
2016,04,11,14,13,12.70
2016,04,11,14,14,12.80
2016,04,11,14,15,12.80
2016,04,11,14,16,12.80
2016,04,11,14,17,12.80
2016,04,11,14,18,12.80
2016,04,11,14,19,12.80
2016,04,11,14,20,12.80
2016,04,11,14,21,12.80
2016,04,11,14,22,12.80
2016,04,11,14,23,12.80
2016,04,11,14,24,12.70
2016,04,11,14,25,12.70
2016,04,11,14,26,12.70
2016,04,11,14,27,12.80
2016,04,11,14,28,12.80
2016,04,11,14,29,12.90
2016,04,11,14,30,13.00
2016,04,11,14,31,13.10
2016,04,11,14,32,13.20
2016,04,11,14,33,13.20
2016,04,11,14,34,13.20
2016,04,11,14,35,13.20
2016,04,11,14,36,13.20
2016,04,11,14,37,13.10
2016,04,11,14,38,13.10
2016,04,11,14,39,13.00
2016,04,11,14,40,13.00
2016,04,11,14,41,13.00
2016,04,11,14,42,13.00
2016,04,11,14,43,13.00
2016,04,11,14,44,13.00
2016,04,11,14,45,13.00
2016,04,11,14,46,13.00
2016,04,11,14,47,13.00
2016,04,11,14,48,13.00
2016,04,11,14,49,12.90
2016,04,11,14,50,12.90
2016,04,11,14,51,12.90
2016,04,11,14,52,12.80
2016,04,11,14,53,12.80
2016,04,11,14,54,12.80
2016,04,11,14,55,12.80
2016,04,11,14,56,12.80
2016,04,11,14,57,12.80
2016,04,11,14,58,12.80
2016,04,11,14,59,12.80
2016,04,11,15,00,12.80
2016,04,11,15,01,12.80
2016,04,11,15,02,12.80
2016,04,11,15,03,12.90
2016,04,11,15,04,13.00
2016,04,11,15,05,13.00
2016,04,11,15,06,13.10
2016,04,11,15,07,13.10
2016,04,11,15,08,13.20
2016,04,11,15,09,13.30
2016,04,11,15,10,13.30
2016,04,11,15,11,13.30
2016,04,11,15,12,13.30
2016,04,11,15,13,13.30
2016,04,11,15,14,13.30
2016,04,11,15,15,13.20
2016,04,11,15,16,13.20
2016,04,11,15,17,13.20
2016,04,11,15,18,13.20
2016,04,11,15,19,13.20
2016,04,11,15,20,13.20
2016,04,11,15,21,13.20
2016,04,11,15,22,13.20
2016,04,11,15,23,13.20
2016,04,11,15,24,13.20
2016,04,11,15,25,13.20
2016,04,11,15,26,13.20
2016,04,11,15,27,13.20
2016,04,11,15,28,13.20
2016,04,11,15,29,13.20
2016,04,11,15,30,13.20
2016,04,11,15,31,13.20
2016,04,11,15,32,13.30
2016,04,11,15,33,13.30
2016,04,11,15,34,13.30
2016,04,11,15,35,13.40
2016,04,11,15,36,13.40
2016,04,11,15,37,13.40
2016,04,11,15,38,13.40
2016,04,11,15,39,13.40
2016,04,11,15,40,13.30
2016,04,11,15,41,13.40
2016,04,11,15,42,13.40
2016,04,11,15,43,13.40
2016,04,11,15,44,13.50
2016,04,11,15,45,13.50
2016,04,11,15,46,13.50
2016,04,11,15,47,13.50
2016,04,11,15,48,13.50
2016,04,11,15,49,13.50
2016,04,11,15,50,13.50
2016,04,11,15,51,13.40
2016,04,11,15,52,13.40
2016,04,11,15,53,13.40
2016,04,11,15,54,13.40
2016,04,11,15,55,13.50
2016,04,11,15,56,13.40
2016,04,11,15,57,13.40
2016,04,11,15,58,13.50
2016,04,11,15,59,13.50
2016,04,11,16,00,13.50
2016,04,11,16,01,13.50
2016,04,11,16,02,13.50
2016,04,11,16,03,13.50
2016,04,11,16,04,13.50
2016,04,11,16,05,13.60
2016,04,11,16,06,13.60
2016,04,11,16,07,13.60
2016,04,11,16,08,13.70
2016,04,11,16,09,13.70
2016,04,11,16,10,13.70
2016,04,11,16,11,13.70
2016,04,11,16,12,13.70
2016,04,11,16,13,13.70
2016,04,11,16,14,13.60
2016,04,11,16,15,13.60
2016,04,11,16,16,13.60
2016,04,11,16,17,13.60
2016,04,11,16,18,13.60
2016,04,11,16,19,13.60
2016,04,11,16,20,13.60
2016,04,11,16,21,13.60
2016,04,11,16,22,13.60
2016,04,11,16,23,13.60
2016,04,11,16,24,13.50
2016,04,11,16,25,13.50
2016,04,11,16,26,13.50
2016,04,11,16,27,13.50
2016,04,11,16,28,13.50
2016,04,11,16,29,13.40
2016,04,11,16,30,13.40
2016,04,11,16,31,13.30
2016,04,11,16,32,13.30
2016,04,11,16,33,13.30
2016,04,11,16,34,13.30
2016,04,11,16,35,13.30
2016,04,11,16,36,13.30
2016,04,11,16,37,13.30
2016,04,11,16,38,13.30
2016,04,11,16,39,13.30
2016,04,11,16,40,13.40
2016,04,11,16,41,13.40
2016,04,11,16,42,13.40
2016,04,11,16,43,13.30
2016,04,11,16,44,13.30
2016,04,11,16,45,13.30
2016,04,11,16,46,13.30
2016,04,11,16,47,13.30
2016,04,11,16,48,13.30
2016,04,11,16,49,13.30
2016,04,11,16,50,13.30
2016,04,11,16,51,13.30
2016,04,11,16,52,13.30
2016,04,11,16,53,13.30
2016,04,11,16,54,13.30
2016,04,11,16,55,13.30
2016,04,11,16,56,13.30
2016,04,11,16,57,13.30
2016,04,11,16,58,13.30
2016,04,11,16,59,13.40
2016,04,11,17,00,13.40
2016,04,11,17,01,13.40
2016,04,11,17,02,13.30
2016,04,11,17,03,13.30
2016,04,11,17,04,13.30
2016,04,11,17,05,13.30
2016,04,11,17,06,13.30
2016,04,11,17,07,13.30
2016,04,11,17,08,13.30
2016,04,11,17,09,13.30
2016,04,11,17,10,13.30
2016,04,11,17,11,13.30
2016,04,11,17,12,13.30
2016,04,11,17,13,13.30
2016,04,11,17,14,13.30
2016,04,11,17,15,13.30
2016,04,11,17,16,13.20
2016,04,11,17,17,13.20
2016,04,11,17,18,13.20
2016,04,11,17,19,13.20
2016,04,11,17,20,13.10
2016,04,11,17,21,13.10
2016,04,11,17,22,13.10
2016,04,11,17,23,13.00
2016,04,11,17,24,13.00
2016,04,11,17,25,12.90
2016,04,11,17,26,12.90
2016,04,11,17,27,12.90
2016,04,11,17,28,12.90
2016,04,11,17,29,12.90
2016,04,11,17,30,12.90
2016,04,11,17,31,12.80
2016,04,11,17,32,12.90
2016,04,11,17,33,12.90
2016,04,11,17,34,12.90
2016,04,11,17,35,12.90
2016,04,11,17,36,12.90
2016,04,11,17,37,12.90
2016,04,11,17,38,12.90
2016,04,11,17,39,12.90
2016,04,11,17,40,12.90
2016,04,11,17,41,12.90
2016,04,11,17,42,12.90
2016,04,11,17,43,12.90
2016,04,11,17,44,13.00